Voltar ao catálogo

COSMOS 1275 DEB

AtivoPO
NORAD 42176·DEBRIS·🇷🇺 Russia

Lançado Jun 4, 1981 de Plesetsk Cosmodrome

Loading…

Próximas Passagens (próximas 24 horas)

TLE

EnvelhecendoSource: Space-Track

Época: Sep 3, 2026, 14:22 UTC

1 42176U 81053SQ  26246.59906427  .00000498  00000-0  49810-3 0  9995
2 42176  82.9022 356.9766 0105745 136.4301 283.4891 13.73460243639766

Acompanhe COSMOS 1275 DEB em tempo real com AllMySat

Download on the App Store